Atwater, CA

11:46 AM PST on January 21, 2017 (GMT -0800)
Atwater

Weather History for KMER - April, 2014

Change the Weather History Date:

Saturday, April 12, 2014

  Actual Average (KMCE) Record (KMCE)
Temperature  
Mean Temperature 64 °F -  
Max Temperature 78 °F 75 °F 92 °F (2008)
Min Temperature 50 °F 44 °F 36 °F (2001)
Degree Days  
Heating Degree Days 1    
Growing Degree Days 14 (Base 50)    
Moisture  
Dew Point 53 °F    
Average Humidity 80    
Maximum Humidity 100    
Minimum Humidity 34    
Precipitation  
Precipitation 0.00 in - - ()
Sea Level Pressure  
Sea Level Pressure 29.84 in    
Wind  
Wind Speed 8 mph (NNW)    
Max Wind Speed 15 mph    
Max Gust Speed 17 mph    
Visibility 10 miles    
Events      
Averages and records for this station are not official NWS values.
T = Trace of Precipitation, MM = Missing Value Source: NWS Daily Summary

Daily Weather History Graph

Daily Weather History Graph

Search for Another Location

Airport or City:

Trip Planner

Search our weather history database for the weather conditions in past years. The results will help you decide how hot, cold, wet, or windy it might be!

Date:

Astronomy

Apr. 12, 2014 Rise Set
Actual Time 6:31 AM PDT 7:34 PM PDT
Civil Twilight 6:04 AM PDT 8:01 PM PDT
Nautical Twilight 5:33 AM PDT 8:33 PM PDT
Astronomical Twilight 5:00 AM PDT 9:06 PM PDT
Moon 5:21 PM PDT (4/12) 4:57 AM PDT (4/12)
Length of Visible Light 13h 56m
Length of Day
13h 03m
Waxing Gibbous, 93% of the Moon is Illuminated
Apr 12
Waxing Gibbous
Apr 15
Full
Apr 22
Last Quarter
Apr 28
New
May 6
First Quarter

Hourly Weather History & Observations

Time (PDT) Temp. Dew Point Humidity Pressure Visibility Wind Dir Wind Speed Gust Speed Precip Events Conditions
12:15 AM 59.0 °F 57.2 °F 94% 29.82 in 10.0 mi North - - N/A   Clear
12:35 AM 57.2 °F 57.2 °F 100% 29.83 in 10.0 mi North - - N/A   Clear
12:55 AM 57.2 °F 57.2 °F 100% 29.83 in 10.0 mi North - - N/A   Clear
1:15 AM 57.2 °F 57.2 °F 100% 29.83 in 10.0 mi North - - N/A   Clear
1:35 AM 57.2 °F 55.4 °F 94% 29.83 in 10.0 mi North - - N/A   Clear
1:55 AM 57.2 °F 55.4 °F 94% 29.82 in 10.0 mi North - - N/A   Clear
2:15 AM 55.4 °F 53.6 °F 94% 29.82 in 10.0 mi North - - N/A   Clear
2:35 AM 55.4 °F 53.6 °F 94% 29.82 in 10.0 mi North - - N/A   Clear
2:55 AM 55.4 °F 53.6 °F 94% 29.82 in 10.0 mi North - - N/A   Clear
3:15 AM 53.6 °F 53.6 °F 100% 29.82 in 9.0 mi North - - N/A   Clear
3:35 AM 53.6 °F 53.6 °F 100% 29.82 in 10.0 mi North - - N/A   Clear
3:55 AM 53.6 °F 53.6 °F 100% 29.81 in 10.0 mi North - - N/A   Clear
4:15 AM 53.6 °F 53.6 °F 100% 29.81 in 10.0 mi North - - N/A   Clear
4:35 AM 53.6 °F 53.6 °F 100% 29.81 in 9.0 mi North 10.4 mph - N/A   Clear
4:55 AM 53.6 °F 53.6 °F 100% 29.81 in 9.0 mi North 11.5 mph - N/A   Clear
5:15 AM 51.8 °F 51.8 °F 100% 29.81 in 9.0 mi North 9.2 mph - N/A   Clear
5:35 AM 51.8 °F 51.8 °F 100% 29.82 in 9.0 mi North 8.1 mph - N/A   Clear
5:55 AM 51.8 °F 51.8 °F 100% 29.82 in 10.0 mi North 6.9 mph - N/A   Clear
6:45 AM 50.0 °F 50.0 °F 100% 29.83 in 7.0 mi NNW 6.9 mph - N/A   Clear
7:45 AM 53.6 °F 53.6 °F 100% 29.85 in 7.0 mi NNW 6.9 mph - N/A   Clear
8:45 AM 59.0 °F 53.6 °F 82% 29.87 in 7.0 mi NNW 10.4 mph - N/A   Clear
9:45 AM 62.6 °F 53.6 °F 72% 29.87 in 7.0 mi NNW 9.2 mph - N/A   Clear
11:45 AM 69.8 °F 51.8 °F 53% 29.87 in 10.0 mi North 11.5 mph 17.3 mph N/A   Clear
12:45 PM 71.6 °F 50.0 °F 46% 29.86 in 10.0 mi NNW 9.2 mph - N/A   Clear
1:45 PM 73.4 °F 50.0 °F 44% 29.84 in 10.0 mi NNW 9.2 mph - N/A   Clear
2:45 PM 77.0 °F 51.8 °F 41% 29.83 in 10.0 mi North 15.0 mph - N/A   Clear
3:45 PM 78.8 °F 48.2 °F 34% 29.81 in 10.0 mi NNW 10.4 mph - N/A   Clear
4:45 PM 78.8 °F 50.0 °F 36% 29.80 in 10.0 mi NNW 9.2 mph - N/A   Clear
6:45 PM 75.2 °F 50.0 °F 41% 29.81 in 10.0 mi North 8.1 mph - N/A   Clear
7:45 PM 66.2 °F 55.4 °F 68% 29.82 in 10.0 mi Calm Calm - N/A   Clear
8:15 PM 66.2 °F 53.6 °F 64% 29.83 in 10.0 mi Calm Calm - N/A   Clear
8:35 PM 66.2 °F 51.8 °F 60% 29.84 in 10.0 mi WNW 6.9 mph - N/A   Clear
8:45 PM 64.4 °F 51.8 °F 64% 29.85 in 10.0 mi Calm Calm - N/A   Clear
8:55 PM 64.4 °F 51.8 °F 64% 29.85 in 10.0 mi NW 8.1 mph - N/A   Clear
9:15 PM 64.4 °F 51.8 °F 64% 29.85 in 10.0 mi NW 8.1 mph - N/A   Clear
9:55 PM 62.6 °F 53.6 °F 72% 29.87 in 10.0 mi NNW 4.6 mph - N/A   Clear
10:15 PM 60.8 °F 53.6 °F 77% 29.87 in 10.0 mi North 6.9 mph - N/A   Clear
10:35 PM 59.0 °F 53.6 °F 82% 29.87 in 10.0 mi North 5.8 mph - N/A   Clear
10:55 PM 57.2 °F 53.6 °F 88% 29.87 in 10.0 mi North 6.9 mph - N/A   Clear
11:15 PM 59.0 °F 53.6 °F 82% 29.88 in 10.0 mi NW 5.8 mph - N/A   Clear
11:35 PM 59.0 °F 53.6 °F 82% 29.88 in 10.0 mi NNW 5.8 mph - N/A   Clear
11:55 PM 57.2 °F 53.6 °F 88% 29.89 in 10.0 mi Calm Calm - N/A   Clear